Total_Precipitation_Accumulation
3.52 3.81 3.63 3.44 3.47 3.46 3.79 4.16 4.25 3.70 3.25 2.98 2.75 2.63 2.58 2.55 2.68 2.47 2.47 2.49 2.23 2.04 1.91 1.83 1.83 1.81 1.91 2.08 2.32 2.63 2.91 3.14 3.38 3.61 3.83 4.07 4.39 4.77
3.41 3.54 3.51 3.40 3.63 3.63 3.76 4.10 4.39 4.29 3.51 3.16 3.01 2.65 2.71 2.31 2.52 2.36 2.34 2.34 2.08 1.91 1.80 1.78 1.78 1.79 1.78 1.79 1.88 2.07 2.31 2.49 2.69 2.92 3.08 3.10 3.18 3.43
2.97 3.03 2.97 3.25 3.47 3.44 3.66 3.86 4.15 4.43 3.88 3.45 3.45 3.17 3.14 2.88 2.66 2.44 2.23 2.13 1.92 1.86 1.73 1.67 1.64 1.65 1.69 1.64 1.63 1.71 1.88 2.03 2.19 2.39 2.74 2.96 2.88 2.87
2.74 2.87 2.69 2.95 3.11 3.19 3.44 3.60 3.89 4.36 4.15 3.74 3.62 3.48 3.36 3.19 3.00 2.76 2.26 1.96 1.91 2.00 1.80 1.65 1.60 1.59 1.61 1.55 1.50 1.47 1.51 1.58 1.68 1.84 2.08 2.39 2.62 2.74
2.55 2.48 2.42 2.66 2.71 2.95 3.17 3.19 3.40 3.85 3.96 3.58 3.36 3.58 3.40 3.22 3.31 2.92 2.60 2.51 1.94 1.91 1.83 1.66 1.60 1.52 1.51 1.51 1.48 1.39 1.37 1.37 1.41 1.57 1.82 2.05 2.24 2.39
2.30 2.20 2.24 2.43 2.43 2.65 2.73 2.95 3.21 3.36 3.58 3.49 3.29 3.37 3.36 3.28 3.49 3.26 3.06 2.87 2.46 2.02 2.04 1.83 1.73 1.66 1.56 1.49 1.46 1.45 1.45 1.44 1.45 1.53 1.63 1.77 1.97 2.12
2.05 1.94 1.88 1.92 1.99 2.19 2.15 2.47 2.84 2.94 3.00 3.14 3.12 3.19 3.39 3.54 3.39 3.40 3.27 3.12 2.91 2.62 2.59 2.17 1.88 1.70 1.64 1.59 1.57 1.56 1.58 1.60 1.61 1.68 1.78 1.86 1.95 2.05
2.03 2.00 1.81 1.72 1.74 1.84 1.89 1.99 2.24 2.37 2.55 2.82 2.91 2.97 3.19 3.51 3.63 3.62 3.51 3.31 3.07 2.82 2.97 2.91 2.49 2.17 1.94 1.66 1.69 1.71 1.73 1.80 1.81 1.88 1.98 2.09 2.23 2.25
2.00 1.98 1.71 1.57 1.69 1.65 1.80 1.83 1.88 1.96 2.08 2.39 2.50 2.52 2.83 3.18 3.59 3.58 3.63 3.41 3.15 3.11 3.24 3.24 3.28 2.98 2.37 2.00 1.96 1.77 1.81 1.90 1.93 1.97 2.04 2.08 2.25 2.40
1.89 1.97 1.99 1.95 1.84 1.85 1.86 1.75 1.62 1.65 1.72 1.69 1.77 2.04 2.29 2.63 3.07 3.23 3.51 3.66 3.49 3.39 3.44 3.48 3.49 3.69 3.15 2.57 2.42 2.10 2.01 2.04 2.08 2.08 2.09 2.18 2.27 2.35
1.93 1.97 1.96 1.90 1.87 1.80 1.76 1.72 1.57 1.50 1.51 1.54 1.56 1.74 1.99 2.18 2.54 2.90 3.19 3.42 3.48 3.59 3.67 3.72 3.60 3.74 3.98 3.50 2.82 2.48 2.19 2.08 2.11 2.17 2.22 2.31 2.38 2.41
2.01 1.96 1.86 1.75 1.83 1.71 1.56 1.61 1.58 1.60 1.66 1.62 1.65 1.72 1.78 1.97 2.33 2.60 2.89 3.20 3.24 3.33 3.18 3.22 3.22 3.40 3.83 3.97 3.52 2.84 2.36 2.22 2.13 2.08 2.12 2.21 2.36 2.17
1.98 1.98 1.93 1.83 1.57 1.52 1.47 1.47 1.56 1.67 1.76 1.80 1.80 1.84 1.95 2.02 2.08 2.28 2.60 2.89 2.98 2.78 2.60 2.83 3.03 3.19 3.26 3.39 3.50 3.34 2.86 2.55 2.36 2.19 2.13 2.12 2.15 2.05
2.21 2.19 2.15 1.96 1.65 1.55 1.47 1.52 1.65 1.60 1.60 1.74 1.72 1.70 1.79 1.91 2.03 2.23 2.44 2.58 2.66 2.67 2.71 2.90 3.04 3.10 3.18 3.17 3.18 3.21 3.15 2.98 2.79 2.64 2.55 2.54 2.32 2.23
2.43 2.45 2.35 2.11 1.83 1.61 1.56 1.58 1.59 1.51 1.51 1.58 1.55 1.53 1.63 1.77 1.89 2.10 2.34 2.55 2.60 2.50 2.55 2.74 2.91 2.95 3.07 3.07 2.94 2.84 2.95 3.04 3.00 2.94 2.96 2.91 2.68 2.51
2.58 2.50 2.41 2.21 1.94 1.77 1.70 1.61 1.52 1.57 1.59 1.56 1.59 1.64 1.76 1.89 2.01 2.10 2.32 2.52 2.67 2.59 2.52 2.56 2.70 2.88 2.85 2.69 2.60 2.39 2.39 2.52 2.67 2.84 3.03 3.20 3.16 3.04
2.74 2.54 2.44 2.25 2.05 1.93 1.83 1.76 1.73 1.73 1.66 1.60 1.67 1.71 1.76 1.86 1.96 2.01 2.19 2.28 2.32 2.33 2.43 2.58 2.79 2.90 2.85 2.74 2.59 2.29 2.22 2.15 2.23 2.58 2.92 3.12 3.07 2.89
2.25 2.18 2.22 2.17 2.08 1.98 1.90 1.82 1.81 1.75 1.70 1.70 1.74 1.74 1.74 1.76 1.86 1.99 2.12 2.19 2.15 2.13 2.24 2.36 2.73 2.98 2.96 2.71 2.31 2.15 2.11 2.06 2.11 2.39 2.59 2.64 2.58 2.44
1.87 1.90 1.89 1.87 1.86 1.87 1.87 1.79 1.76 1.75 1.82 1.87 1.87 1.93 1.97 1.95 1.90 2.02 2.18 2.27 2.23 2.21 2.31 2.46 2.65 2.83 2.78 2.47 2.18 1.93 1.98 2.02 2.19 2.37 2.44 2.35 2.19 2.02
1.69 1.77 1.80 1.81 1.80 1.84 1.89 1.87 1.89 1.91 1.96 2.01 2.06 2.09 2.14 2.11 2.10 2.09 2.18 2.29 2.28 2.29 2.35 2.43 2.47 2.51 2.52 2.40 2.26 2.05 1.85 1.93 2.01 2.10 2.21 2.23 2.07 1.90
1.82 1.90 1.93 1.93 1.95 2.00 2.00 1.97 2.02 2.03 2.00 2.06 2.08 2.09 2.08 2.11 2.19 2.21 2.27 2.38 2.33 2.26 2.22 2.23 2.30 2.46 2.60 2.82 2.64 2.25 2.05 1.99 2.04 2.06 2.16 2.26 2.21 2.13
1.86 1.92 1.96 2.00 2.04 2.06 2.03 2.01 2.04 2.02 2.02 2.07 2.05 2.03 2.00 1.97 1.99 2.05 2.10 2.15 2.18 2.18 2.12 2.17 2.41 2.62 2.70 2.79 2.62 2.40 2.33 2.28 2.26 2.25 2.17 2.05 1.99 1.95
1.86 1.91 1.92 1.89 1.88 1.87 1.84 1.87 1.98 2.01 2.04 2.03 2.00 1.96 1.97 1.97 1.96 2.02 2.08 2.12 2.16 2.23 2.26 2.30 2.37 2.49 2.58 2.64 2.69 2.62 2.45 2.38 2.41 2.39 2.25 1.99 1.63 1.44